Regional Weather Roundup
Issued by NWS

Home | Current Version | Previous Version | Graphics & Text | Print | Product List | Glossary On
Versions: 1 2 3 4 5 6 7 8 9 10 11 12 13 14 15 16 17 18 19 20 21 22 23 24 25 26 27 28 29 30 31 32 33 34 35 36 37 38 39 40 41 42 43 44 45 46 47 48 49 50
000
ASUS43 KIND 110609
RWRIN

WEATHER ROUNDUP FOR INDIANA
NATIONAL WEATHER SERVICE INDIANAPOLIS IN
100 AM EST MON DEC 11 2017

NOTE: "FAIR" INDICATES FEW OR NO CLOUDS BELOW 12,000 FEET WITH NO
SIGNIFICANT WEATHER AND/OR OBSTRUCTIONS TO VISIBILITY.

* - STATION DOES NOT REPORT WEATHER SUCH AS PRECIPITATION OR FOG.

+ - STATION NOT QUALITY CONTROLLED BY THE NATIONAL WEATHER SERVICE.
    USE DATA WITH CAUTION...ESPECIALLY DEWPOINT AND RELATIVE
    HUMIDITY OBSERVATIONS.

INZ001>003-010>013-019-020-110700-
NORTHWEST INDIANA

CITY           SKY/WX    TMP DP  RH WIND       PRES   REMARKS
GARY /AIRPORT/ MOCLDY    29  19  65 W6        30.09S WCI  23
KNOX *+        CLOUDY    30  23  74 CALM      30.07S
LA PORTE +     CLOUDY    29  22  77 W3        30.06F
6HR MIN TEMP:  29; 6HR MAX TEMP:  31;

MICHIGAN CITY+ CLOUDY    32  23  69 NW5       30.07S WCI  27
MONTICELLO +   CLEAR     22  17  82 W6        30.09S WCI  15
6HR MIN TEMP:  21; 6HR MAX TEMP:  31;

RENSSELAER +   CLOUDY    27  18  69 N5        30.09F WCI  21
VALPARAISO     CLOUDY    30  22  72 W5        30.07S WCI  25
6HR MIN TEMP:  30; 6HR MAX TEMP:  33;


$$

LMZ046-743>745-110700-
SOUTHERN LAKE MICHIGAN

STATION/POSITION TIME  TEMP    WIND        PRES    WAVE
                       AIR SEA DIR/SP/G            HT
                 (UTC) (F)     (DEG/KT/KT) (MB)    (FT)
BURNS HARBOR     0530   31     340/  6/ 11 1019.0R
MICHIGAN CITY    0540   31     310/  9/ 13   N/A

$$

INZ004-005-014>016-021>024-110700-
NORTH CENTRAL INDIANA

CITY           SKY/WX    TMP DP  RH WIND       PRES   REMARKS
GOSHEN         CLOUDY    30  22  72 W6        30.04R WCI  24
6HR MIN TEMP:  30; 6HR MAX TEMP:  31;

LOGANSPORT +   CLOUDY    30  21  69 W5        30.09R WCI  25
PERU/GRISSOM   CLOUDY    29  23  78 NW6       30.06S WCI  23
6HR MIN TEMP:  29; 6HR MAX TEMP:  32;

ROCHESTER +    CLOUDY    32  25  74 W6        30.07S WCI  26
SOUTH BEND     CLOUDY    29  22  75 NW7       30.06R WCI  22
6HR MIN TEMP:  28; 6HR MAX TEMP:  30;

WARSAW +       CLOUDY    30  25  80 W6        30.05S WCI  24

$$

INZ006>009-017-018-025>027-110700-
NORTHEAST INDIANA

CITY           SKY/WX    TMP DP  RH WIND       PRES   REMARKS
AUBURN +       CLOUDY    30  23  74 NW7       30.05R WCI  23
FORT WAYNE     CLOUDY    31  24  75 W8        30.05S WCI  23
6HR MIN TEMP:  31; 6HR MAX TEMP:  34;

HUNTINGTON +   CLOUDY    30  22  73 W3        30.06R
6HR MIN TEMP:  30; 6HR MAX TEMP:  33;

KENDALLVILLE + CLOUDY    28  22  79 NW3       30.03S

$$

INZ028-029-035-036-043>045-051>053-110700-
WEST CENTRAL INDIANA

CITY           SKY/WX    TMP DP  RH WIND       PRES   REMARKS
CRAWFORDSVL +  CLEAR     21  19  89 W3          N/A
6HR MIN TEMP:  21; 6HR MAX TEMP:  31;

GREENCASTLE +  CLEAR     28  21  74 CALM      30.10F
LAFAYETTE      CLOUDY    23  18  81 CALM      30.10F
6HR MIN TEMP:  22; 6HR MAX TEMP:  32;

TERRE HAUTE    CLEAR     24  19  81 CALM      30.12F
6HR MIN TEMP:  23; 6HR MAX TEMP:  37;


$$

INZ030>032-037>040-046>048-054>057-064-065-110700-
CENTRAL INDIANA

CITY           SKY/WX    TMP DP  RH WIND       PRES   REMARKS
FRANKFORT +    CLEAR     24  20  85 NW3       30.10S
6HR MIN TEMP:  24; 6HR MAX TEMP:  33;

GREENWOOD *+   CLEAR     31  24  75 NW3       30.10R
INDIANAPOLIS   CLEAR     25  20  81 W6        30.09S WCI  18
6HR MIN TEMP:  25; 6HR MAX TEMP:  31;

-EAGLE CREEK   CLEAR     28  20  71 NW8       30.08S WCI  20
6HR MIN TEMP:  28; 6HR MAX TEMP:  35;

KOKOMO +       CLOUDY    30  24  78 NW5       30.08S WCI  25
6HR MIN TEMP:  28; 6HR MAX TEMP:  32;

MARION +       CLOUDY    29  23  78 NW5       30.08R WCI  24
MT COMFORT *+  CLEAR     25  23  93 NW8       30.09R WCI  16
SHELBYVILLE    CLEAR     28  20  71 W7        30.08R WCI  21
6HR MIN TEMP:  28; 6HR MAX TEMP:  32;

ZIONSVILLE +   CLEAR     23  19  87 W5        30.09R WCI  17
6HR MIN TEMP:  22; 6HR MAX TEMP:  31;


$$

INZ033-034-041-042-049-050-058-059-110700-
EAST CENTRAL INDIANA

CITY           SKY/WX    TMP DP  RH WIND       PRES   REMARKS
MUNCIE         CLOUDY    31  23  72 NW8       30.06R WCI  23
6HR MIN TEMP:  31; 6HR MAX TEMP:  36;

RICHMOND +     CLOUDY    27  23  86 W6        30.06R WCI  20

$$

INZ060-061-067>069-081>083-085>088-110700-
SOUTHWEST INDIANA

CITY           SKY/WX    TMP DP  RH WIND       PRES   REMARKS
EVANSVILLE     CLEAR     29  24  82 CALM      30.15S
6HR MIN TEMP:  29; 6HR MAX TEMP:  40;

HUNTINGBURG +  CLEAR     35  24  64 NW3       30.14R
6HR MIN TEMP:  33; 6HR MAX TEMP:  37;

WASHINGTON +   CLEAR     31  22  70 W3        30.13F
6HR MIN TEMP:  31; 6HR MAX TEMP:  38;


$$

INZ062-063-066-070>080-084-089>092-110700-
SOUTH CENTRAL AND SOUTHEAST INDIANA

CITY           SKY/WX    TMP DP  RH WIND       PRES   REMARKS
BEDFORD +      CLEAR     30  23  74 W3        30.11S
BLOOMINGTON    CLEAR     29  21  72 CALM      30.09F
6HR MIN TEMP:  28; 6HR MAX TEMP:  36;

MADISON *+     CLEAR     32  23  69 W3        30.11S
NORTH VERNON + CLEAR     28  21  74 NW6       30.10R WCI  22
SEYMOUR +      CLEAR     28  21  74 W5        30.11S WCI  23

$$





USA.gov is the U.S. government's official web portal to all federal, state and local government web resources and services.